Wetbulb
50.53 50.53 50.80 51.11 51.23 51.48 51.73 51.87 51.76 51.80 51.39 51.98 52.74 53.42 54.53 54.37 50.51 44.45 39.34 45.37 48.77 53.16 53.29 49.33 47.84 46.57 47.70 45.03 47.68 49.76 41.22 37.82 39.51 39.79 40.90 45.75 42.48 45.06 46.20 44.64 45.60 47.06 47.40 48.75 49.92
49.94 50.07 50.46 50.50 50.58 50.60 50.68 51.04 50.98 50.70 50.97 51.03 51.47 52.90 53.88 53.11 43.30 39.50 45.61 50.15 50.88 51.94 46.95 46.29 43.85 44.69 44.27 43.52 44.18 43.24 38.41 38.35 42.01 42.92 40.25 40.73 40.47 41.39 41.85 42.74 44.14 45.23 47.28 47.79 47.86
49.09 49.45 49.51 49.83 50.12 51.51 52.76 52.22 51.38 50.92 50.40 50.85 50.86 51.67 53.36 53.77 41.00 36.86 47.01 49.13 49.36 49.15 46.43 47.51 44.35 43.33 41.93 43.27 41.70 40.96 39.10 40.35 40.30 40.86 40.51 39.71 40.66 41.90 40.19 39.36 40.20 39.58 41.85 44.17 45.31
48.21 48.39 48.64 49.37 51.01 52.88 54.74 53.67 53.17 52.00 51.19 50.78 50.66 51.70 51.33 45.92 34.60 37.20 45.44 46.67 47.46 44.67 46.07 45.97 43.76 40.88 40.24 39.70 40.00 37.62 38.99 38.18 38.92 39.78 38.17 36.58 39.15 38.66 39.07 36.34 39.20 40.29 40.88 41.60 42.21
47.52 47.63 48.47 50.09 52.31 53.79 53.17 52.76 51.52 50.63 51.05 50.61 51.92 50.04 41.83 34.70 31.91 39.04 43.59 42.31 41.97 43.52 42.96 43.16 41.35 39.72 37.51 38.34 38.60 36.98 36.89 38.77 39.27 37.69 36.02 36.65 36.62 37.06 35.41 36.72 38.17 38.52 38.86 38.99 40.15
47.14 47.22 47.99 50.32 52.40 52.88 53.14 52.12 52.21 51.52 51.12 52.50 51.39 44.57 38.41 31.84 38.74 39.02 38.38 39.16 39.94 41.28 42.80 43.19 40.97 42.23 39.02 37.28 37.15 36.04 36.86 36.53 36.49 34.56 34.21 30.99 34.97 37.18 36.69 35.99 35.87 36.06 36.58 38.04 38.51
47.23 47.05 47.64 49.70 50.80 50.65 52.38 53.01 52.70 50.81 53.05 49.08 44.74 39.28 34.86 31.26 39.28 38.97 38.92 38.07 39.66 40.17 40.15 40.50 41.30 40.27 38.23 35.58 34.80 35.24 33.20 34.60 33.07 31.65 29.30 32.01 34.11 30.70 34.76 36.00 34.94 34.43 34.41 35.45 36.30
47.01 46.63 47.14 47.74 49.33 48.79 48.95 49.81 47.88 47.69 47.83 47.06 43.62 39.50 31.69 38.65 40.25 37.24 38.85 39.45 40.26 41.18 40.31 39.10 38.78 35.04 32.35 33.01 32.64 29.46 32.18 29.88 30.45 29.07 29.55 30.27 29.19 30.34 34.68 34.58 33.73 34.24 34.10 34.15 34.91
46.70 46.11 46.59 46.98 48.08 48.47 48.56 45.85 45.79 45.54 43.97 42.92 39.07 37.65 30.40 38.08 34.40 36.56 37.48 35.02 37.82 37.84 37.35 37.32 35.63 31.04 31.99 31.66 30.48 28.38 27.14 24.06 25.71 28.03 27.14 27.26 24.76 30.90 33.82 33.27 32.21 33.29 33.84 33.93 34.03
46.29 45.55 45.91 46.68 47.55 47.78 47.67 46.72 43.99 41.74 39.71 38.61 37.12 35.38 32.68 29.61 33.49 34.79 37.60 35.89 35.39 34.92 33.95 32.51 31.12 29.73 28.12 29.95 26.48 22.94 22.77 22.22 22.16 25.02 25.95 25.33 24.47 29.87 32.04 32.29 31.46 31.92 32.80 33.20 32.93
46.12 44.90 45.21 44.79 46.26 46.15 44.60 42.92 38.37 35.81 33.85 28.78 28.67 28.99 29.61 33.46 34.93 33.34 34.74 33.71 34.18 31.98 28.23 28.03 26.42 21.36 22.47 23.83 22.54 21.32 20.59 20.90 23.74 24.59 23.29 22.80 24.38 27.35 30.35 30.83 30.34 30.79 31.10 31.48 32.16
46.17 44.55 44.56 44.63 44.13 43.26 41.69 35.45 32.26 35.25 27.60 31.32 30.42 30.49 31.81 32.33 28.98 31.12 35.57 30.40 30.23 26.11 27.26 27.19 21.01 23.19 24.58 23.95 22.11 21.49 20.39 21.12 23.39 24.31 23.34 23.52 23.78 27.84 29.01 29.14 29.97 29.82 30.25 30.24 31.07
45.99 44.31 43.82 42.82 42.05 39.96 36.34 33.59 37.33 36.31 31.11 27.96 29.39 28.61 28.98 31.45 26.14 27.14 31.22 28.47 26.86 24.72 26.05 24.45 21.53 24.31 23.02 22.72 21.72 21.24 19.85 19.19 17.57 22.28 24.06 23.01 23.24 25.68 29.66 30.27 31.00 31.35 31.51 31.22 30.12
45.73 43.91 42.98 41.53 39.82 36.60 34.13 35.72 38.62 37.42 32.18 25.27 27.15 28.01 29.90 29.81 24.93 30.57 30.88 27.99 24.89 22.03 22.66 22.16 23.60 21.86 21.87 20.21 21.11 19.92 22.18 20.16 19.06 19.84 21.88 23.58 21.99 23.73 26.99 27.53 28.59 29.56 30.20 30.09 30.04
45.12 43.56 41.34 40.81 36.24 35.61 34.91 36.68 39.33 36.50 25.57 24.43 25.64 32.89 30.31 26.59 25.39 27.25 31.25 29.30 22.56 21.36 23.12 18.75 20.40 20.34 19.88 19.31 21.46 20.67 22.40 20.37 19.82 19.48 18.49 20.37 19.28 24.86 24.90 23.67 25.17 27.83 28.78 29.46 30.00
44.28 42.11 38.59 36.32 36.27 33.77 36.02 37.93 37.13 33.14 21.71 19.96 23.99 24.01 25.23 25.45 24.58 27.04 26.63 29.08 26.41 24.24 24.21 20.93 24.12 22.23 21.03 22.37 22.19 23.35 19.84 20.99 20.99 20.18 16.29 18.65 19.23 24.55 23.63 20.07 23.79 27.09 28.36 28.74 29.11
43.20 40.02 35.96 35.02 32.75 34.81 37.95 35.80 32.03 25.89 19.87 19.40 19.48 22.70 21.74 20.34 22.26 22.67 21.21 19.50 20.21 18.90 17.98 19.55 20.05 22.45 22.76 19.54 22.94 23.07 18.45 19.56 17.10 17.67 18.18 19.35 17.55 23.53 23.89 24.17 22.22 24.66 26.64 28.11 29.09
41.32 37.64 34.57 32.18 34.29 35.39 35.73 33.09 24.12 13.43 15.94 19.69 21.22 20.82 19.21 18.73 18.98 19.89 19.64 18.79 19.08 16.53 16.85 18.32 17.86 19.20 21.95 18.86 13.48 17.71 16.32 18.52 12.84 15.01 17.47 18.87 14.88 23.71 25.69 26.10 25.69 26.20 26.92 28.25 28.42
39.11 34.00 33.34 32.28 33.95 34.62 33.62 26.50 24.29 18.52 20.00 20.06 19.98 18.69 14.07 17.12 18.39 18.43 16.91 17.12 15.82 16.04 17.68 16.00 15.95 20.12 21.22 21.84 19.23 14.53 14.57 15.48 11.16 9.21 8.67 18.58 19.47 24.08 25.18 24.34 25.15 25.70 27.07 26.26 27.10
35.13 32.10 30.68 31.68 32.90 34.11 31.88 22.66 16.56 21.62 22.14 21.39 20.69 17.57 16.85 13.51 16.34 16.96 15.90 16.53 17.62 18.73 16.52 13.91 14.43 18.12 19.89 21.85 20.96 17.98 20.25 13.26 13.38 8.38 8.91 16.84 13.97 19.47 20.66 23.65 24.97 24.90 25.29 26.30 27.12
32.18 30.70 30.73 31.34 33.01 30.37 27.61 17.88 15.63 23.14 23.97 20.93 18.57 13.41 15.65 14.35 13.67 14.33 15.51 16.16 18.83 18.94 18.91 15.52 13.53 14.11 16.88 14.94 16.55 15.49 14.45 12.86 14.08 12.47 10.24 8.67 18.21 23.96 23.58 24.99 24.09 24.50 25.83 26.38 26.61
29.99 31.94 29.91 30.85 29.18 15.04 18.46 15.81 22.21 21.63 23.75 21.46 20.88 18.83 17.88 15.00 13.92 14.01 16.01 15.72 21.65 21.40 15.52 16.68 14.27 12.12 13.33 17.19 17.99 15.59 15.58 16.07 13.49 8.44 11.25 9.76 11.91 23.72 23.95 25.07 25.14 24.28 25.80 27.52 28.05
28.99 28.20 30.56 29.91 27.49 17.86 15.07 18.12 21.24 20.32 20.52 19.63 18.77 20.69 19.72 16.36 14.81 14.81 15.90 21.25 21.49 20.26 16.76 17.74 12.95 12.59 10.54 12.29 13.44 12.27 15.62 16.99 13.67 13.16 8.66 7.88 17.35 23.14 23.30 23.79 25.27 24.23 26.21 26.96 27.34
28.03 29.23 27.23 23.54 20.22 19.96 16.28 16.89 16.88 22.28 20.51 20.59 18.69 19.93 17.88 15.08 17.24 12.36 15.62 20.06 21.76 22.02 23.06 21.68 12.04 11.52 17.50 13.69 13.29 9.24 12.18 15.50 13.12 8.73 11.33 10.80 18.98 23.66 23.95 23.35 25.35 26.10 25.82 26.17 26.73
23.48 17.84 14.59 23.73 19.48 15.85 18.33 17.82 16.70 16.07 18.93 21.54 17.19 17.30 15.40 9.61 12.20 13.10 16.62 17.71 20.74 22.65 22.90 19.78 10.74 8.33 11.29 13.71 13.48 11.58 11.19 12.18 10.67 12.61 8.87 18.36 18.89 21.70 23.99 23.18 24.15 25.36 25.40 24.87 25.69
25.90 22.89 15.16 12.72 13.51 16.33 16.02 16.77 18.13 17.87 18.13 16.66 15.39 19.34 15.95 13.08 18.20 13.44 16.19 16.52 16.99 16.83 18.17 14.36 11.52 3.82 4.28 12.01 12.22 8.84 11.28 11.50 12.65 14.25 14.00 14.77 14.43 22.69 23.74 24.78 23.40 24.50 24.65 24.24 25.14
24.11 22.46 25.59 15.68 14.70 18.19 20.57 18.26 19.50 20.51 20.03 20.93 19.94 18.99 16.36 19.10 20.55 20.45 22.99 22.43 20.91 16.97 16.36 13.08 12.14 7.40 7.30 7.10 8.22 5.28 8.11 11.46 13.16 12.96 13.51 9.66 17.14 23.55 21.71 22.75 23.98 24.05 24.68 24.39 25.30
MSLP
1022.82 1022.50 1022.12 1021.66 1021.26 1020.97 1020.66 1020.48 1020.35 1020.24 1020.13 1020.04 1020.03 1019.88 1019.75 1019.43 1019.00 1018.92 1020.56 1022.06 1021.36 1020.58 1019.61 1018.62 1018.08 1017.80 1017.55 1017.43 1017.41 1017.21 1016.21 1015.21 1015.11 1014.98 1015.10 1016.04 1015.98 1015.88 1016.26 1015.62 1015.45 1015.24 1014.78 1014.51 1014.65
1022.72 1022.28 1021.86 1021.54 1021.25 1020.94 1020.65 1020.40 1020.21 1020.10 1020.07 1019.91 1020.00 1019.91 1019.80 1019.68 1019.21 1020.08 1022.13 1021.59 1020.97 1020.49 1019.50 1018.76 1018.24 1017.92 1017.50 1017.71 1017.78 1017.14 1016.81 1016.25 1016.83 1016.90 1017.21 1017.67 1017.70 1017.57 1017.26 1016.79 1016.31 1015.99 1015.90 1015.71 1015.51
1023.07 1022.58 1022.05 1021.50 1021.01 1020.57 1020.19 1020.01 1019.81 1019.81 1019.89 1019.88 1019.93 1020.00 1019.99 1019.88 1019.77 1021.74 1021.99 1021.43 1020.92 1020.43 1019.87 1019.28 1018.71 1018.25 1017.86 1018.03 1018.18 1017.97 1017.49 1017.94 1018.10 1018.72 1018.82 1018.45 1018.39 1018.81 1018.58 1018.34 1018.91 1018.62 1018.15 1017.60 1016.87
1023.13 1022.72 1022.21 1021.65 1020.98 1020.30 1019.69 1019.39 1019.28 1019.31 1019.65 1019.77 1019.94 1020.00 1020.07 1019.96 1021.84 1022.63 1022.51 1021.82 1021.06 1020.22 1019.61 1019.14 1018.69 1018.29 1018.21 1018.41 1018.94 1018.89 1019.03 1019.47 1019.74 1020.09 1019.94 1019.88 1020.06 1019.92 1020.26 1021.64 1021.30 1020.53 1020.08 1019.09 1018.08
1023.06 1022.57 1022.06 1021.41 1020.81 1020.06 1019.65 1019.31 1019.39 1019.21 1019.41 1019.81 1019.99 1020.00 1020.13 1021.00 1023.21 1023.20 1022.59 1021.92 1020.90 1020.14 1019.67 1019.22 1018.89 1018.84 1018.80 1019.41 1019.81 1019.73 1020.21 1020.51 1020.87 1021.17 1021.61 1021.39 1020.67 1020.82 1021.85 1022.28 1021.86 1021.49 1021.08 1020.36 1019.63
1023.07 1022.63 1022.05 1021.42 1020.85 1020.15 1019.89 1019.80 1019.57 1019.45 1019.68 1019.90 1020.10 1020.20 1020.34 1022.25 1024.01 1023.51 1022.70 1021.77 1021.26 1020.61 1020.09 1019.91 1019.78 1019.73 1019.88 1020.37 1020.55 1021.18 1021.19 1021.53 1022.01 1022.21 1022.60 1022.44 1021.20 1021.33 1021.83 1022.70 1022.25 1022.49 1022.15 1021.71 1021.29
1023.21 1022.73 1022.26 1021.65 1020.95 1020.66 1020.37 1020.06 1019.89 1019.81 1019.84 1020.11 1020.53 1020.40 1021.41 1024.29 1024.25 1023.77 1022.91 1022.53 1021.98 1021.46 1020.84 1021.10 1020.66 1020.44 1021.07 1021.36 1022.14 1021.94 1021.78 1022.20 1022.98 1023.39 1023.60 1023.05 1022.15 1023.39 1023.86 1023.13 1023.19 1023.39 1023.33 1022.66 1022.28
1023.41 1023.00 1022.54 1022.03 1021.58 1021.29 1020.90 1020.57 1020.51 1020.52 1020.54 1020.52 1020.56 1020.40 1023.02 1024.42 1024.33 1023.89 1023.22 1022.47 1022.21 1021.87 1021.80 1022.04 1021.76 1021.92 1022.62 1023.06 1022.73 1022.67 1022.54 1022.64 1023.91 1024.56 1024.52 1023.86 1022.97 1024.48 1024.30 1023.52 1023.26 1023.45 1023.73 1023.64 1023.18
1023.57 1023.08 1022.62 1022.33 1022.01 1021.69 1021.50 1021.15 1020.95 1020.96 1020.98 1020.79 1020.74 1021.00 1023.79 1024.31 1024.22 1024.25 1024.04 1023.43 1022.90 1022.68 1022.72 1022.64 1022.53 1023.64 1023.46 1022.94 1022.98 1023.62 1023.53 1024.45 1024.74 1025.83 1026.00 1024.98 1024.76 1025.30 1025.18 1024.68 1024.16 1023.89 1023.83 1023.86 1023.80
1023.63 1023.10 1022.71 1022.47 1022.17 1021.95 1021.62 1021.51 1021.50 1021.15 1021.51 1021.36 1021.76 1022.07 1024.57 1025.46 1025.50 1025.15 1024.33 1024.03 1023.42 1023.17 1022.97 1023.35 1024.17 1024.49 1024.91 1023.90 1024.63 1025.30 1025.50 1025.92 1026.07 1026.79 1026.80 1026.01 1025.97 1025.85 1025.53 1025.04 1024.95 1024.65 1024.10 1023.92 1023.84
1023.73 1023.30 1022.89 1022.54 1022.35 1022.11 1021.53 1021.61 1022.12 1022.77 1024.08 1025.16 1025.42 1025.56 1026.10 1026.16 1025.84 1025.41 1025.29 1024.48 1023.97 1024.11 1024.39 1025.47 1025.28 1026.80 1027.63 1027.56 1027.56 1027.37 1027.09 1026.85 1026.82 1027.59 1027.33 1026.61 1026.11 1025.99 1025.88 1025.47 1025.24 1025.24 1024.93 1024.33 1024.18
1023.80 1023.41 1023.03 1022.67 1022.61 1022.33 1022.37 1023.07 1024.24 1024.44 1025.67 1026.34 1026.36 1026.48 1026.80 1026.86 1026.31 1026.17 1025.55 1025.28 1025.20 1025.40 1025.93 1026.33 1027.73 1029.08 1029.05 1028.84 1028.46 1028.20 1027.91 1027.70 1027.57 1027.64 1027.16 1026.19 1025.78 1025.65 1025.66 1025.75 1025.84 1025.58 1025.44 1025.33 1024.62
1023.84 1023.47 1023.16 1022.79 1022.66 1022.84 1023.63 1024.78 1024.98 1024.73 1024.71 1026.76 1027.05 1027.19 1027.60 1027.39 1027.91 1027.75 1027.17 1027.09 1026.89 1026.75 1026.65 1026.91 1029.70 1029.85 1029.45 1029.28 1028.78 1028.69 1028.76 1028.82 1028.60 1027.67 1026.80 1026.15 1024.88 1024.85 1024.95 1024.94 1025.44 1025.38 1025.48 1025.68 1025.57
1024.01 1023.60 1023.23 1022.86 1023.02 1024.00 1024.52 1025.16 1025.06 1024.92 1025.41 1027.24 1027.17 1027.88 1027.88 1027.66 1028.23 1028.69 1028.46 1028.19 1028.12 1028.44 1028.63 1029.35 1030.39 1030.14 1029.88 1029.88 1029.97 1029.12 1029.43 1028.97 1028.44 1027.70 1026.45 1026.48 1024.58 1024.17 1024.19 1024.53 1025.32 1025.13 1025.37 1025.61 1025.41
1024.06 1023.80 1023.53 1022.77 1023.66 1024.24 1025.05 1025.12 1025.06 1025.01 1025.99 1028.10 1027.88 1028.15 1028.08 1028.04 1029.02 1028.80 1029.06 1028.14 1028.84 1029.28 1029.45 1030.84 1030.87 1030.84 1030.57 1030.72 1030.62 1029.76 1029.53 1028.92 1028.47 1027.78 1027.25 1026.14 1025.34 1023.16 1024.47 1024.68 1025.18 1025.32 1025.48 1025.47 1025.61
1024.09 1023.94 1023.74 1023.84 1024.25 1025.24 1025.13 1024.99 1024.93 1025.42 1026.83 1028.29 1028.49 1028.30 1028.22 1028.79 1029.27 1029.42 1029.21 1029.21 1030.11 1029.68 1029.98 1030.98 1031.60 1031.60 1031.37 1031.09 1030.76 1030.29 1029.50 1028.86 1028.39 1027.61 1026.59 1025.80 1025.55 1022.88 1023.97 1025.19 1025.54 1025.63 1025.53 1025.55 1025.55
1024.20 1024.21 1024.12 1024.66 1025.25 1025.43 1025.11 1024.67 1025.28 1026.27 1028.53 1028.71 1028.90 1028.99 1029.29 1029.81 1030.03 1030.20 1030.48 1030.69 1030.94 1030.89 1030.88 1031.37 1031.57 1031.80 1031.92 1031.32 1030.71 1029.92 1029.40 1028.39 1027.83 1026.82 1025.67 1025.88 1025.54 1022.89 1024.28 1025.25 1025.75 1025.83 1025.68 1025.58 1025.51
1024.38 1024.47 1025.18 1025.65 1025.61 1025.57 1024.96 1024.84 1025.93 1027.53 1028.22 1029.00 1029.33 1029.72 1030.12 1030.96 1031.21 1031.22 1031.31 1031.76 1032.16 1031.92 1031.83 1031.78 1031.76 1032.05 1032.29 1032.16 1031.81 1031.05 1030.55 1029.36 1028.87 1027.89 1026.57 1025.96 1024.65 1023.05 1024.15 1025.11 1025.60 1025.83 1025.75 1025.49 1025.33
1024.63 1024.97 1025.25 1025.88 1025.80 1025.62 1025.20 1025.93 1026.68 1027.43 1028.17 1028.74 1029.74 1030.19 1031.10 1031.64 1031.75 1031.82 1032.20 1032.39 1032.85 1032.82 1032.64 1032.61 1032.51 1032.62 1032.60 1032.59 1032.74 1031.86 1031.48 1031.74 1030.62 1030.36 1028.78 1025.29 1024.20 1023.42 1024.09 1024.66 1025.03 1025.12 1025.08 1025.22 1025.21
1024.81 1025.08 1025.93 1026.34 1026.08 1025.64 1025.93 1027.35 1028.43 1028.60 1028.83 1029.04 1029.31 1030.53 1030.99 1031.89 1032.16 1032.23 1032.52 1033.06 1033.16 1033.35 1033.41 1033.48 1033.16 1032.80 1032.84 1032.89 1033.04 1032.58 1032.72 1032.32 1031.61 1030.45 1028.39 1025.43 1024.73 1023.05 1023.29 1023.43 1024.03 1024.32 1024.68 1024.82 1024.92
1025.05 1025.34 1026.45 1026.48 1025.99 1026.38 1027.49 1028.89 1029.38 1029.43 1029.32 1029.33 1029.68 1030.68 1031.25 1031.85 1032.30 1032.63 1032.80 1033.35 1033.35 1033.58 1033.72 1033.88 1033.62 1033.57 1033.33 1032.96 1032.58 1033.25 1032.97 1032.93 1032.43 1031.46 1029.87 1027.28 1023.37 1022.12 1022.18 1022.65 1023.28 1023.77 1024.10 1024.29 1024.43
1025.54 1026.16 1026.91 1026.68 1027.19 1029.13 1029.35 1029.75 1029.82 1029.75 1029.84 1029.89 1030.17 1030.66 1031.28 1032.10 1032.39 1032.66 1032.70 1032.88 1033.19 1033.44 1033.69 1034.09 1033.93 1033.30 1032.99 1033.36 1033.57 1033.29 1032.98 1032.74 1032.15 1032.04 1030.88 1029.31 1023.96 1022.31 1022.48 1022.82 1023.21 1023.49 1023.63 1023.63 1023.74
1026.03 1026.91 1027.13 1027.01 1027.89 1029.56 1030.48 1030.24 1029.99 1030.02 1030.09 1030.31 1030.53 1030.87 1031.58 1031.97 1032.55 1032.74 1032.81 1032.90 1033.26 1033.42 1033.61 1034.09 1034.17 1033.70 1033.52 1034.05 1034.04 1033.71 1033.07 1032.81 1032.76 1032.25 1030.17 1028.99 1023.07 1022.31 1022.61 1022.70 1022.94 1022.99 1022.96 1023.01 1023.12
1026.98 1027.72 1027.91 1028.29 1029.34 1028.92 1029.82 1030.12 1030.17 1030.18 1030.26 1030.41 1030.91 1031.32 1031.76 1032.22 1032.52 1032.80 1032.73 1032.86 1033.17 1033.33 1033.68 1033.98 1034.27 1033.56 1032.76 1032.60 1032.96 1033.36 1032.95 1032.76 1032.62 1031.78 1029.05 1025.89 1022.31 1021.39 1022.07 1022.42 1022.47 1022.41 1022.58 1022.44 1022.50
1027.78 1029.87 1030.87 1030.17 1030.21 1029.80 1029.37 1029.68 1029.70 1030.01 1030.34 1030.36 1031.02 1031.12 1031.46 1032.36 1032.66 1032.51 1032.57 1032.82 1033.12 1033.31 1033.57 1034.18 1034.46 1034.32 1033.24 1033.07 1033.06 1032.84 1032.39 1032.29 1031.21 1029.47 1028.69 1023.17 1023.26 1020.92 1021.60 1022.21 1022.19 1022.15 1022.05 1021.86 1021.71
1028.27 1029.51 1031.14 1030.99 1030.97 1030.19 1029.71 1029.48 1029.06 1029.50 1029.69 1030.27 1030.56 1030.58 1031.14 1031.30 1031.00 1031.36 1031.92 1032.37 1032.25 1033.59 1033.97 1034.89 1034.69 1035.22 1033.93 1032.80 1032.53 1032.03 1030.79 1030.32 1029.82 1029.23 1027.67 1025.13 1023.80 1020.92 1021.60 1021.74 1021.68 1021.42 1021.40 1021.14 1021.03
1029.01 1029.39 1028.87 1030.83 1030.62 1030.07 1029.28 1028.96 1028.78 1028.96 1029.58 1029.68 1030.02 1030.39 1030.77 1030.37 1030.70 1031.03 1031.11 1031.42 1031.76 1032.56 1033.52 1034.63 1034.99 1035.26 1033.39 1033.12 1032.33 1030.44 1026.87 1027.24 1027.26 1026.96 1026.05 1025.45 1021.80 1021.49 1021.36 1021.26 1021.17 1021.11 1021.06 1020.85 1020.62
Wind_Speed
14 14 13 13 12 12 10 9 7 6 3 2 2 1 3 5 10 9 14 13 15 20 19 9 3 3 1 3 2 1 5 9 7 7 3 8 10 8 11 11 12 8 16 21 20
17 17 16 15 13 12 11 10 8 5 3 1 1 1 2 4 9 18 14 23 22 20 9 7 4 3 4 3 2 5 4 4 2 7 7 11 9 11 8 15 14 18 22 25 25
16 16 16 15 15 13 11 7 6 6 5 4 2 2 1 2 4 6 26 27 24 17 5 5 3 1 3 3 3 3 4 2 4 9 13 12 10 12 11 10 21 22 23 22 19
16 16 15 15 13 12 12 8 4 1 8 6 3 3 3 2 2 7 26 23 20 14 4 1 2 4 4 5 2 4 1 4 6 12 13 13 12 12 15 11 19 20 21 22 24
18 17 17 16 15 12 10 6 7 6 9 7 7 7 1 9 6 17 22 17 8 5 4 2 2 2 4 4 2 2 3 6 10 10 11 12 13 4 11 22 20 21 22 23 22
19 18 17 17 13 16 15 13 13 11 11 10 8 5 3 7 9 17 17 11 11 7 7 6 4 3 6 3 2 2 4 6 7 15 10 17 13 1 16 24 20 23 22 22 22
18 19 17 17 13 13 13 12 14 14 13 14 10 6 22 6 5 16 13 6 7 4 5 6 3 2 1 5 6 3 2 2 13 19 10 21 10 15 25 19 18 17 19 20 22
18 18 15 13 14 17 14 11 13 14 10 8 7 4 8 1 4 18 16 7 14 9 9 8 8 10 5 4 3 3 3 2 10 15 9 15 3 22 23 21 23 21 17 17 20
17 17 14 13 12 9 10 14 5 14 12 2 4 2 6 2 10 15 10 7 6 8 11 8 7 7 5 2 4 9 3 6 6 12 15 10 7 14 15 17 19 20 19 17 18
16 16 13 14 10 11 7 3 16 7 9 1 5 3 8 8 7 11 9 9 6 2 4 11 7 7 14 4 4 3 3 3 6 8 13 7 6 9 14 16 17 18 21 20 20
16 16 12 10 14 11 5 0 3 6 15 9 4 6 3 9 3 17 9 7 6 10 6 10 13 13 11 11 5 1 3 7 4 2 12 4 1 1 9 14 17 17 18 21 22
17 16 14 8 9 5 4 4 3 5 13 8 5 5 3 5 5 23 15 5 7 7 2 8 12 6 3 7 2 0 3 8 5 3 7 4 6 4 1 8 11 14 16 18 22
16 16 13 5 4 6 6 4 3 3 6 5 4 5 4 6 9 14 12 4 10 19 17 12 4 4 4 8 7 3 6 8 5 11 1 11 4 9 4 2 12 14 14 14 16
15 15 13 4 3 1 4 2 1 2 4 7 6 7 5 1 6 6 7 3 5 6 6 9 3 5 5 5 8 2 7 10 8 7 3 7 3 8 4 5 11 15 15 15 18
13 11 9 11 7 3 3 1 2 3 3 5 4 4 5 6 3 13 7 5 7 5 3 3 2 5 4 4 6 4 15 7 3 3 4 1 5 4 3 4 11 14 14 15 15
12 10 4 4 3 2 2 2 3 1 4 1 4 5 2 8 4 6 6 8 2 6 12 5 1 1 5 8 6 12 2 3 3 2 4 5 4 4 3 2 6 11 13 15 15
9 10 6 2 3 4 2 2 2 3 3 1 2 3 6 7 5 8 6 7 3 3 1 1 2 1 3 4 3 9 2 1 3 2 3 5 6 7 7 6 4 8 11 13 13
6 6 6 4 3 2 2 2 3 2 5 1 3 5 4 6 4 4 3 4 6 2 4 2 4 2 3 3 3 6 5 3 5 4 5 3 8 3 8 6 2 4 6 9 12
2 2 3 7 4 2 1 2 1 4 6 11 4 2 2 1 1 2 3 2 2 3 0 2 3 1 0 2 3 3 3 3 2 2 3 4 6 11 9 9 6 4 8 9 11
2 2 4 6 3 1 3 2 3 1 5 2 3 2 5 3 4 3 3 3 5 1 2 4 2 2 3 2 4 3 7 2 2 3 6 5 8 9 12 13 7 5 6 7 8
1 3 4 3 2 4 1 3 3 3 1 2 4 5 2 4 2 4 5 3 3 5 4 4 2 4 1 6 6 5 3 2 1 2 4 7 7 5 10 10 8 5 5 6 7
2 2 4 3 2 1 3 5 3 4 2 3 4 4 4 6 4 4 5 3 7 7 4 3 1 4 2 3 2 1 4 5 3 5 5 4 13 3 8 8 8 7 9 7 7
2 1 2 3 3 3 2 2 2 4 4 3 4 2 2 5 2 4 4 2 10 8 6 7 2 3 3 3 1 6 9 8 3 1 11 5 8 2 8 10 12 12 15 12 12
2 1 2 5 3 6 6 4 4 2 3 4 4 3 3 3 1 5 6 5 10 6 6 5 3 6 5 3 4 5 7 15 9 7 6 19 22 25 13 13 16 17 16 16 12
4 2 1 1 3 3 2 5 6 6 1 4 3 4 6 4 3 4 5 4 7 8 7 4 6 5 13 15 14 13 14 16 23 22 12 19 17 24 14 14 21 19 17 15 13
2 4 1 3 1 1 2 5 7 5 7 4 4 8 8 6 6 8 9 5 6 4 9 3 3 2 6 10 13 16 20 22 26 25 29 34 33 35 27 20 16 14 14 14 13
1 1 1 1 1 1 2 5 7 7 5 1 6 6 9 11 7 2 7 3 6 10 11 7 5 0 6 3 9 11 18 22 13 12 20 23 27 19 17 15 14 12 13 15 15
Wind_Direction
12 6 360 357 353 346 340 333 327 329 333 353 23 352 5 18 73 59 45 343 331 328 323 310 301 26 86 86 59 270 207 254 270 295 25 26 353 15 333 299 327 312 305 321 335
8 4 359 354 347 339 328 314 305 294 283 259 298 311 319 70 54 61 358 342 340 336 337 353 5 7 103 104 125 203 220 238 347 332 341 337 357 335 333 319 320 328 332 333 336
9 2 357 351 345 338 325 316 286 250 226 194 183 222 282 286 88 9 347 337 332 329 288 290 293 327 121 160 132 153 248 12 69 12 340 328 340 337 336 343 354 353 352 351 351
10 7 1 356 352 335 332 329 330 197 187 178 162 191 108 263 186 340 335 330 325 317 279 274 213 168 148 159 83 210 90 27 355 357 358 345 326 336 39 18 343 341 341 341 341
10 7 3 2 354 359 9 30 41 88 143 155 152 157 178 59 17 330 331 330 336 338 43 64 92 115 145 120 130 250 23 347 1 23 32 343 329 327 60 358 349 355 0 356 351
9 7 4 4 359 36 56 78 87 106 127 135 132 122 74 76 326 342 340 337 6 359 43 37 68 77 93 87 19 330 308 22 41 7 50 353 319 204 6 349 355 13 6 6 10
7 5 3 1 43 40 49 75 50 63 127 109 94 91 65 69 339 349 355 347 352 7 69 20 41 64 353 124 355 345 259 157 31 357 28 331 136 26 350 1 23 25 8 3 2
6 4 4 9 28 40 43 62 49 57 83 92 62 69 81 112 338 12 358 56 44 57 82 45 56 85 30 324 78 49 129 360 38 19 6 344 65 11 12 18 23 24 23 12 3
6 7 6 6 355 4 357 34 65 56 42 326 35 65 84 4 3 354 9 353 331 53 52 51 59 52 33 137 125 36 21 0 337 31 348 13 29 11 17 28 20 15 16 14 8
7 9 6 8 10 351 337 311 50 35 6 129 76 107 37 344 330 342 355 360 20 326 44 33 52 64 31 353 63 20 5 317 305 359 360 38 68 33 19 27 30 14 4 4 7
6 7 4 354 4 3 356 77 189 40 35 53 26 81 11 334 338 5 350 330 20 49 64 29 68 55 39 42 66 48 310 320 345 105 332 18 104 83 30 26 19 16 6 357 359
0 6 358 343 26 21 61 60 53 127 93 43 51 69 21 335 10 10 358 67 33 77 59 100 65 41 51 23 355 76 335 18 292 314 326 334 299 187 139 45 29 15 9 2 349
358 1 2 352 35 43 68 80 320 276 78 43 43 33 348 7 45 359 5 47 56 58 59 78 69 347 24 27 20 54 19 348 312 314 295 304 204 217 206 291 9 16 11 4 359
354 359 3 330 92 120 66 338 276 297 102 8 356 32 356 350 69 20 13 29 58 86 64 66 35 30 31 45 359 17 3 323 314 317 7 347 305 224 247 313 358 3 5 0 354
351 2 22 40 116 100 111 268 166 245 196 24 22 319 11 62 330 27 13 54 74 66 242 93 66 33 36 349 339 330 331 305 297 253 292 79 267 147 231 268 351 356 356 355 354
351 8 29 36 63 36 295 173 224 50 236 139 324 356 49 31 50 338 42 50 56 61 56 92 95 313 352 308 275 316 319 156 180 217 239 128 357 231 214 224 335 347 353 355 353
353 56 49 17 81 331 198 215 97 204 11 165 57 42 75 24 47 22 45 40 29 135 76 101 105 48 345 295 256 350 219 200 236 245 314 152 288 281 180 173 336 336 338 347 351
35 79 55 41 339 220 230 92 202 38 204 203 122 81 72 360 45 34 105 102 61 6 110 210 214 183 14 29 351 11 355 19 293 292 316 265 231 314 178 181 277 300 308 338 352
96 57 64 3 10 292 224 142 271 177 145 152 110 118 113 144 103 103 42 111 97 1 63 197 165 147 126 95 291 53 58 35 95 67 276 257 262 255 197 221 240 299 342 337 340
116 99 46 334 338 32 76 128 123 120 125 162 167 258 162 176 175 190 175 157 138 80 272 143 203 182 129 175 87 354 140 175 96 294 278 245 279 265 213 228 246 296 308 320 325
76 125 23 353 346 49 160 120 185 205 188 166 143 126 126 157 192 174 152 160 215 135 88 142 271 128 250 198 179 156 173 115 29 257 280 300 258 220 230 204 224 277 286 298 305
70 134 18 270 72 34 105 162 192 145 108 111 99 106 151 160 147 182 198 243 168 159 142 144 95 241 158 109 327 318 204 196 224 186 240 284 269 248 226 219 226 264 299 296 292
82 86 51 264 169 112 164 114 122 148 162 141 119 106 158 163 169 189 191 158 168 172 165 173 184 292 181 144 63 226 198 206 130 149 218 215 256 166 214 231 238 264 306 295 298
107 145 41 56 28 130 146 150 133 97 129 119 119 98 126 135 157 174 202 181 189 200 165 162 191 241 256 50 92 200 202 207 198 218 227 230 273 278 263 265 276 292 292 295 288
17 95 20 32 46 86 61 147 142 169 60 157 133 201 162 138 148 217 191 181 187 208 190 193 247 214 266 271 256 253 245 216 217 220 232 267 264 271 286 296 293 296 288 285 277
110 150 109 106 315 211 332 197 164 163 154 204 202 184 179 173 199 187 167 197 196 167 177 165 254 106 270 273 263 261 256 238 238 243 251 259 271 268 282 283 275 283 283 276 273
104 70 171 354 114 224 206 171 193 152 199 154 172 148 206 239 213 186 188 196 183 168 180 167 201 261 265 4 304 261 240 220 215 220 227 245 249 276 274 275 279 291 287 280 273